Location: Clanezzo
(45.7500°N, 9.6000°E)
Time: 12:30:15
(UTC+00:00)

Cosmos 2082 Rocket - Pass Details

Date: 12 May 2021
Orbit: 834 x 853 km, 71.0° (Epoch: 19 June)

Event Time Altitude Azimuth Distance (km) Brightness Sun altitude
Rises 19:38:11 0° 340° (NNW) 3,392 6.5 -8.9°
Reaches altitude 10° 19:41:01 10° 352° (N) 2,455 5.3 -9.3°
Maximum altitude 19:45:45 27° 50° (NE) 1,559 3.5 -9.9°
Enters shadow 19:50:18 11° 106° (ESE) 2,396 4.0 -10.5°
